Location: B�hl
(48.6968°N, 8.1352°E)
Time: 03:57:05
(UTC+00:00)

SJ-6B - Pass Details

Date: 08 March 2021
Orbit: 509 x 581 km, 97.6° (Epoch: 17 April)

Event Time Altitude Azimuth Distance (km) Brightness Sun altitude
Exits shadow 18:52:54 18° 147° (SSE) 1,414 4.5 -15.7°
Maximum altitude 18:55:44 58° 73° (ENE) 666 2.9 -16.2°
Drops below altitude 10° 18:59:40 10° 354° (N) 1,852 5.7 -16.8°
Sets 19:01:49 0° 351° (N) 2,740 6.7 -17.1°
